Wind_Speed
8 6 4 2 4 3 5 6 3 9 6 5 11 1 5 6 8 4 17 18 24 22 20 20 18 17 15 16 16 16 16 15 14 13 14 12 11 10 7 5 2 1 2 3 4 4 4 5 4
5 7 3 2 4 4 6 4 7 7 8 7 8 3 2 6 8 10 23 22 25 23 20 21 18 15 17 15 14 14 15 14 13 11 11 11 10 8 5 4 2 1 3 4 4 5 4 4 6
5 3 4 3 2 3 5 5 6 6 5 6 5 1 4 4 6 17 17 26 25 23 21 21 16 16 15 13 14 12 12 12 13 11 10 9 8 5 5 4 3 4 5 4 4 6 5 6 8
3 1 1 3 5 6 7 8 6 8 7 2 1 6 5 3 11 13 23 26 24 23 20 17 17 14 14 11 10 11 11 11 10 9 8 7 6 5 4 5 6 6 6 6 6 6 6 7 7
3 2 1 3 7 6 6 5 3 3 3 4 2 5 5 5 9 18 25 25 23 21 18 14 15 15 14 12 10 9 8 7 6 7 8 6 5 5 7 7 8 5 5 5 5 6 8 8 8
2 3 1 5 7 4 3 5 2 2 4 4 4 6 6 8 13 22 24 23 22 19 18 16 16 15 13 14 16 15 13 13 8 6 6 6 7 8 8 9 6 4 4 4 5 6 8 8 6
5 4 6 5 5 5 3 7 5 3 2 5 4 2 6 10 16 23 22 22 20 19 18 17 17 14 13 12 11 15 14 12 12 10 8 7 8 9 10 8 6 5 5 4 5 6 7 7 6
4 3 6 5 5 6 4 6 3 3 2 3 3 4 8 16 21 23 22 21 18 17 16 16 14 12 13 12 12 11 12 12 11 12 7 8 8 11 8 7 6 5 3 3 4 4 5 7 6
2 2 9 10 10 6 5 5 5 4 2 2 4 2 7 21 23 24 22 20 17 17 17 15 16 14 14 12 12 11 11 8 12 14 8 7 8 7 7 9 6 3 2 1 1 3 4 6 6
5 6 8 6 6 8 6 3 5 5 5 6 5 4 13 23 25 25 24 22 20 18 17 15 12 15 15 13 14 12 10 12 13 11 10 9 11 9 8 7 6 5 2 2 1 2 3 5 5
4 7 6 5 4 2 3 5 4 4 3 1 2 9 16 22 23 24 22 21 19 18 16 16 15 14 14 9 14 14 11 13 13 15 11 8 7 7 6 5 3 2 2 2 1 1 3 5 5
4 7 6 5 0 2 1 1 4 6 2 1 2 11 18 21 22 22 23 22 21 20 19 17 16 15 13 10 11 11 12 13 9 14 13 11 8 8 7 5 5 1 2 2 4 1 4 5 6
7 8 7 5 3 5 3 5 6 7 5 3 8 12 17 19 19 19 21 21 20 20 19 17 16 15 13 12 11 10 12 12 11 14 13 11 9 9 7 6 4 3 2 2 5 3 4 6 5
10 11 6 5 4 5 7 6 3 2 7 9 10 13 15 17 18 19 21 21 21 19 19 17 15 14 12 12 12 12 11 15 18 14 12 13 10 8 8 6 4 3 2 4 6 6 5 3 4
9 5 5 8 7 5 7 10 7 4 10 11 12 14 15 15 17 20 21 21 21 19 18 17 16 14 13 13 12 12 12 12 15 13 14 13 11 10 9 6 6 5 4 2 1 1 1 1 2
5 4 4 9 6 4 6 5 7 6 12 13 14 16 16 16 18 19 20 20 21 19 20 19 16 15 14 12 12 11 11 12 14 17 11 14 12 11 8 6 6 5 4 4 4 2 2 2 2
3 6 7 6 5 7 4 11 6 4 11 13 16 18 19 19 19 20 20 21 21 21 20 20 18 16 16 14 12 12 13 15 20 13 12 14 12 10 8 7 6 4 4 4 4 3 2 1 1
4 8 6 9 7 7 11 14 8 6 13 14 16 18 21 23 24 22 21 20 21 21 20 20 20 18 18 15 14 12 13 14 17 19 14 14 11 10 8 7 7 5 4 3 4 5 4 4 2
8 10 12 8 3 11 7 11 13 6 13 16 18 20 22 24 23 23 22 22 21 21 21 22 22 20 19 17 16 15 15 16 17 15 14 16 13 11 10 6 7 6 5 4 5 2 4 2 1
8 10 10 6 2 10 10 14 13 9 10 14 18 20 22 21 23 25 25 24 23 22 22 22 23 22 21 19 17 16 16 16 18 22 15 18 15 13 11 9 6 6 5 5 4 6 4 3 1
11 10 8 10 14 8 9 9 2 2 4 9 13 18 20 23 25 26 28 28 25 26 25 24 24 23 23 20 19 17 18 20 23 18 18 20 21 17 15 12 10 9 7 4 3 4 4 2 1
13 1 6 9 12 10 9 6 4 2 2 4 9 14 19 22 25 26 28 28 28 27 25 25 25 24 22 24 21 20 19 20 19 21 18 19 23 22 17 14 13 12 8 7 5 4 4 3 1
6 2 9 13 14 12 6 6 8 2 7 12 6 5 12 19 25 27 27 27 27 26 26 27 26 26 24 24 24 22 22 22 23 19 19 22 21 24 22 19 14 15 10 9 8 6 4 2 2
5 11 15 10 11 10 7 6 6 7 11 13 9 3 7 16 22 25 25 24 24 25 30 30 28 27 27 26 25 26 22 22 19 21 21 22 20 21 26 20 19 16 13 11 9 9 7 5 4
10 14 7 5 5 4 5 8 4 7 8 11 9 1 7 15 19 23 25 25 25 27 27 28 30 30 29 28 26 25 24 22 21 20 19 24 21 22 23 25 21 19 19 13 11 11 9 7 7
9 9 7 4 5 6 4 4 5 4 4 8 10 4 4 12 18 23 26 26 27 28 26 29 31 33 31 29 28 26 23 21 22 22 20 21 21 21 23 22 21 21 19 20 17 12 11 9 9
7 8 6 10 8 8 5 2 10 5 1 5 10 10 5 5 13 19 23 26 26 27 28 29 29 32 32 30 29 28 25 23 22 22 22 22 22 19 21 23 22 24 23 21 18 16 14 14 13
11 6 7 8 8 11 3 4 7 5 2 5 8 9 9 8 5 14 20 24 26 26 26 27 28 32 32 30 29 28 26 25 23 22 24 23 22 22 21 22 21 22 22 18 17 15 14 14 13
5 9 8 9 9 11 11 7 5 4 2 7 11 11 13 13 11 8 16 18 21 22 25 26 28 29 30 29 28 26 27 25 24 22 23 23 23 23 24 25 25 24 21 19 19 18 18 14 13
11 14 11 11 12 9 8 12 3 3 6 12 12 13 14 14 16 9 8 13 17 21 23 25 25 28 29 29 28 27 25 24 23 24 22 23 26 26 27 27 27 26 23 21 23 21 16 17 15
Wind_Direction
2 333 320 292 232 221 102 89 85 113 115 83 138 27 29 26 4 53 144 151 150 147 144 144 146 149 155 165 158 160 160 162 154 159 168 168 164 163 150 160 128 61 66 101 125 144 151 166 162
323 343 339 275 255 160 113 96 93 72 87 110 136 135 50 75 60 126 149 152 149 145 145 142 139 154 163 172 169 162 164 165 167 165 164 168 162 170 174 177 189 153 111 117 119 115 116 114 141
354 360 293 310 264 108 130 134 112 108 125 153 130 345 8 61 86 140 158 152 150 150 149 146 152 152 172 172 172 169 171 167 171 171 162 169 174 178 181 186 167 139 125 113 107 111 116 113 124
334 312 212 272 128 76 92 111 114 130 115 100 124 108 92 65 144 153 154 153 157 152 158 156 149 164 163 169 171 166 171 171 176 178 181 184 180 184 179 158 145 139 118 109 100 110 126 131 136
349 273 89 110 99 95 114 113 137 131 114 133 199 105 88 88 150 153 154 156 159 158 164 148 150 154 160 157 157 156 161 179 187 200 194 189 188 169 157 153 155 143 121 109 115 119 130 128 136
204 272 120 87 77 101 132 143 131 149 135 133 172 133 91 133 146 154 156 159 161 168 163 160 163 154 166 168 173 170 166 170 162 178 182 176 161 159 157 160 154 139 128 124 125 138 144 145 143
6 30 55 62 73 108 135 170 194 91 143 120 133 126 117 146 156 157 158 161 166 167 173 171 166 161 170 175 175 179 174 178 165 162 162 167 162 166 160 165 155 162 142 121 114 137 146 151 159
18 290 70 52 41 76 138 178 196 220 88 153 193 152 163 162 157 160 160 165 167 167 174 171 170 172 168 167 182 182 181 186 165 165 168 163 168 162 165 162 168 159 115 136 143 135 150 161 144
344 53 55 49 42 85 148 191 183 194 222 196 164 103 134 157 158 164 167 170 166 170 173 178 184 168 167 175 185 189 182 184 182 183 188 166 155 167 173 176 182 160 154 157 224 151 145 167 177
352 38 27 9 35 57 159 186 165 203 188 190 171 131 151 157 163 169 173 175 175 176 176 179 171 169 170 189 197 202 221 200 191 188 196 187 164 180 172 185 186 177 173 241 344 180 196 178 199
38 19 3 34 359 8 130 214 220 255 229 6 177 160 163 165 169 175 179 179 178 179 180 186 177 175 184 191 197 210 214 198 192 198 188 197 184 185 176 194 193 213 290 4 360 171 124 203 183
19 18 345 341 335 247 254 228 234 254 349 4 168 165 169 173 177 182 182 181 180 184 185 187 186 178 183 194 198 197 193 188 201 193 193 192 181 196 186 182 192 162 271 222 168 115 163 156 175
6 359 337 315 281 259 244 264 282 272 252 192 148 158 170 176 180 184 184 181 183 185 187 189 191 187 191 181 204 186 201 202 186 199 194 190 193 189 190 200 183 166 81 100 139 94 126 129 145
332 328 328 346 322 270 277 303 287 119 175 169 165 164 170 178 182 183 183 184 185 187 191 193 197 196 193 183 195 196 198 198 206 190 188 192 185 198 200 189 200 196 131 126 116 103 97 145 184
324 317 109 27 2 326 314 236 222 183 172 174 177 173 173 179 181 186 188 190 189 191 195 194 194 198 196 193 193 194 203 199 198 191 204 191 197 201 186 197 195 216 216 189 229 87 63 105 103
304 249 340 45 351 35 309 323 87 181 189 187 183 182 181 182 185 187 189 192 192 190 193 190 192 197 198 197 193 194 203 194 193 195 193 198 200 193 200 201 206 217 209 208 213 194 117 105 110
189 319 347 8 347 319 275 313 82 180 202 200 194 189 190 187 190 192 192 190 193 194 195 194 195 196 201 192 192 196 198 194 198 194 196 204 197 206 204 191 195 213 195 198 204 205 196 221 141
354 316 315 340 338 311 293 287 302 220 215 217 205 202 197 196 195 193 194 195 195 196 199 199 200 199 201 196 194 199 208 194 205 199 197 206 203 204 191 189 200 192 183 202 202 202 236 199 259
295 287 298 323 357 323 308 293 297 270 221 228 220 213 207 206 199 195 194 195 196 199 200 200 202 201 199 200 199 204 203 204 203 200 215 206 205 209 198 183 199 194 185 202 210 227 198 222 288
268 272 286 320 263 301 301 297 291 276 242 238 228 224 218 206 199 197 196 196 197 198 200 202 201 204 205 202 202 206 203 208 207 212 213 209 213 210 211 202 201 194 187 156 163 134 150 162 91
241 264 307 322 318 279 294 293 318 305 286 251 242 232 223 214 204 197 197 198 198 201 201 203 206 206 209 201 203 206 207 209 211 210 216 215 213 214 213 217 200 212 193 202 175 153 138 152 41
254 134 298 290 311 317 328 316 94 36 325 240 255 222 220 212 206 201 200 200 202 205 201 203 213 213 213 212 208 209 211 212 212 210 217 216 222 221 220 227 228 215 198 208 204 207 184 147 133
284 334 295 298 289 286 291 261 118 155 5 350 333 233 204 202 200 201 200 203 206 205 204 206 214 217 218 219 211 215 219 218 212 216 214 225 224 224 222 228 234 230 211 229 223 219 218 203 179
295 275 265 252 263 264 75 303 148 40 349 350 358 231 185 187 194 198 200 202 204 205 208 212 212 219 218 224 222 223 223 219 215 210 217 221 217 224 222 225 232 232 220 220 221 229 233 204 216
237 257 271 233 204 359 69 290 320 33 14 355 4 125 188 181 185 192 194 197 200 201 205 203 211 216 219 221 224 224 224 223 213 210 220 222 217 218 223 225 228 229 226 221 218 235 218 236 233
214 292 293 296 313 345 149 266 104 27 16 14 36 40 181 190 188 190 192 195 199 200 205 202 209 213 218 223 223 223 225 217 217 218 215 216 216 210 211 220 222 230 225 228 232 238 245 249 251
135 228 350 291 222 262 277 190 240 165 133 68 51 42 58 199 208 204 198 197 200 202 205 203 205 211 216 221 222 223 223 215 213 212 218 216 216 217 223 221 221 230 226 233 235 237 245 244 251
259 4 239 219 266 265 234 264 270 318 357 358 40 41 33 20 236 217 213 207 202 203 205 203 207 211 215 215 220 221 223 223 214 212 213 213 216 211 214 210 216 221 222 226 228 232 244 245 249
181 229 218 294 292 285 278 264 107 250 51 2 16 17 21 9 8 240 221 216 214 208 203 204 205 208 210 211 213 214 219 222 220 217 217 216 213 218 211 216 218 218 221 226 233 234 229 235 240
270 280 280 265 263 236 292 290 57 310 69 359 8 17 15 15 14 7 226 221 215 212 209 207 211 209 210 210 212 215 217 217 216 219 219 218 217 216 219 220 221 224 229 231 235 235 231 239 236
Height
1514 1514 1513 1514 1511 1499 1514 1515 1506 1511 1513 1517 1520 1522 1522 1526 1525 1537 1540 1543 1546 1549 1550 1552 1554 1556 1558 1560 1563 1565 1567 1568 1571 1572 1574 1575 1577 1578 1580 1580 1581 1581 1581 1581 1582 1582 1583 1584 1585
1516 1514 1514 1512 1508 1513 1517 1512 1513 1514 1518 1519 1523 1525 1524 1527 1533 1536 1540 1544 1548 1551 1554 1553 1556 1558 1559 1562 1564 1567 1569 1570 1572 1574 1575 1577 1578 1580 1581 1581 1581 1581 1582 1582 1583 1583 1583 1584 1585
1515 1514 1514 1508 1507 1512 1522 1514 1516 1520 1521 1521 1523 1527 1527 1531 1535 1539 1541 1545 1550 1553 1554 1554 1556 1557 1561 1564 1567 1568 1570 1574 1575 1576 1577 1578 1579 1581 1581 1581 1582 1582 1583 1583 1584 1584 1584 1585 1586
1517 1517 1516 1510 1513 1517 1513 1516 1520 1520 1522 1524 1524 1526 1532 1535 1537 1539 1542 1547 1551 1554 1556 1555 1558 1559 1562 1567 1568 1571 1573 1574 1576 1577 1578 1580 1580 1582 1581 1582 1582 1583 1583 1584 1584 1584 1585 1586 1587
1518 1515 1511 1513 1517 1517 1519 1523 1523 1520 1522 1524 1525 1526 1532 1536 1538 1539 1543 1548 1552 1556 1556 1556 1559 1562 1564 1569 1571 1573 1575 1576 1577 1579 1579 1580 1581 1581 1582 1582 1583 1583 1584 1585 1585 1585 1586 1587 1588
1514 1514 1511 1516 1518 1520 1521 1524 1525 1522 1523 1525 1525 1527 1533 1536 1538 1541 1545 1549 1553 1556 1557 1558 1561 1563 1567 1568 1567 1568 1570 1572 1575 1578 1579 1579 1581 1582 1582 1583 1583 1584 1584 1585 1585 1585 1586 1587 1588
1514 1510 1518 1516 1521 1520 1521 1525 1524 1522 1522 1523 1526 1525 1535 1537 1539 1542 1546 1550 1553 1556 1558 1559 1560 1563 1566 1568 1570 1571 1573 1575 1575 1576 1580 1581 1582 1583 1583 1584 1584 1584 1585 1586 1586 1586 1586 1588 1589
1519 1513 1514 1517 1521 1523 1522 1524 1525 1525 1525 1526 1527 1523 1531 1536 1539 1543 1547 1551 1554 1555 1559 1560 1565 1566 1568 1569 1570 1572 1574 1576 1578 1579 1580 1581 1582 1583 1584 1585 1585 1586 1587 1587 1587 1587 1587 1588 1590
1520 1511 1517 1518 1516 1521 1524 1522 1525 1525 1525 1526 1527 1528 1530 1533 1539 1543 1547 1550 1553 1557 1559 1562 1562 1565 1567 1568 1570 1572 1573 1576 1578 1580 1581 1582 1586 1585 1585 1586 1586 1587 1587 1588 1588 1588 1588 1589 1590
1516 1514 1520 1517 1516 1518 1522 1522 1523 1523 1523 1524 1527 1529 1531 1534 1537 1543 1546 1549 1553 1556 1559 1561 1563 1564 1567 1568 1569 1570 1571 1574 1576 1580 1581 1582 1583 1587 1588 1587 1587 1587 1588 1588 1588 1588 1589 1590 1594
1519 1520 1518 1517 1518 1519 1521 1523 1523 1520 1517 1520 1522 1528 1532 1535 1538 1542 1546 1549 1553 1557 1560 1562 1564 1566 1567 1570 1568 1570 1571 1573 1575 1578 1581 1583 1586 1586 1588 1589 1590 1590 1588 1591 1590 1589 1590 1593 1594
1519 1519 1519 1518 1520 1520 1520 1521 1520 1520 1520 1523 1524 1526 1530 1534 1537 1540 1544 1548 1552 1556 1559 1561 1564 1565 1568 1570 1569 1569 1570 1572 1577 1578 1580 1582 1586 1586 1589 1591 1591 1590 1591 1590 1589 1592 1590 1591 1592
1518 1519 1518 1518 1518 1518 1519 1519 1519 1519 1521 1523 1524 1527 1530 1533 1536 1540 1543 1547 1551 1555 1558 1560 1562 1563 1566 1567 1568 1570 1570 1572 1576 1578 1580 1582 1586 1586 1589 1589 1590 1590 1590 1590 1589 1591 1591 1591 1593
1520 1519 1517 1516 1516 1516 1517 1515 1519 1516 1519 1522 1524 1527 1529 1532 1535 1539 1542 1546 1549 1553 1556 1559 1560 1561 1564 1566 1567 1570 1571 1572 1573 1577 1580 1581 1585 1586 1588 1588 1590 1591 1591 1592 1592 1592 1593 1593 1594
1519 1516 1514 1517 1515 1514 1515 1510 1514 1514 1516 1519 1522 1525 1528 1531 1534 1537 1541 1544 1548 1551 1555 1557 1559 1561 1562 1564 1565 1567 1570 1571 1573 1577 1578 1580 1582 1584 1587 1588 1589 1590 1590 1591 1591 1592 1593 1594 1593
1516 1514 1517 1514 1516 1514 1515 1510 1504 1512 1515 1516 1519 1522 1526 1529 1532 1535 1539 1543 1546 1549 1552 1555 1558 1560 1561 1563 1564 1567 1568 1570 1574 1575 1579 1579 1581 1583 1585 1589 1590 1590 1590 1592 1593 1594 1594 1594 1595
1513 1519 1520 1517 1514 1516 1514 1509 1506 1510 1512 1513 1516 1518 1522 1526 1530 1533 1536 1539 1543 1547 1550 1552 1555 1558 1559 1560 1564 1566 1568 1570 1570 1575 1578 1578 1581 1583 1584 1587 1589 1589 1590 1592 1593 1593 1593 1594 1594
1525 1523 1518 1519 1512 1512 1510 1505 1498 1501 1507 1508 1511 1513 1517 1520 1524 1529 1533 1537 1541 1544 1547 1550 1552 1554 1556 1558 1561 1565 1566 1569 1570 1572 1576 1577 1580 1581 1583 1587 1587 1588 1590 1592 1593 1592 1592 1593 1593
1523 1521 1519 1509 1511 1512 1504 1502 1495 1494 1500 1502 1505 1508 1511 1514 1520 1525 1530 1534 1537 1541 1544 1546 1549 1551 1553 1556 1559 1562 1564 1567 1569 1572 1574 1576 1579 1581 1585 1586 1587 1587 1589 1590 1591 1591 1591 1593 1592
1519 1519 1514 1507 1508 1508 1502 1499 1489 1488 1491 1495 1498 1501 1505 1510 1514 1519 1525 1529 1533 1537 1540 1542 1545 1547 1550 1554 1557 1560 1562 1565 1567 1568 1572 1574 1577 1580 1582 1584 1585 1586 1588 1589 1589 1590 1592 1593 1592
1514 1514 1513 1516 1506 1494 1500 1490 1488 1485 1490 1491 1492 1494 1498 1502 1508 1514 1519 1523 1528 1531 1534 1537 1540 1544 1547 1551 1553 1555 1557 1560 1562 1566 1569 1571 1574 1577 1579 1581 1584 1585 1587 1588 1588 1589 1591 1594 1593
1513 1505 1512 1514 1511 1514 1495 1512 1489 1487 1485 1484 1484 1486 1490 1495 1501 1507 1513 1517 1522 1526 1530 1533 1536 1540 1543 1546 1550 1551 1553 1557 1561 1563 1567 1570 1571 1574 1577 1579 1581 1585 1587 1587 1588 1589 1590 1591 1594
1509 1509 1510 1510 1507 1500 1490 1502 1489 1484 1483 1479 1478 1478 1482 1488 1494 1501 1507 1512 1517 1522 1525 1528 1531 1535 1539 1541 1545 1548 1550 1553 1556 1560 1563 1565 1569 1572 1575 1577 1579 1582 1584 1585 1586 1588 1589 1591 1593
1508 1509 1501 1501 1499 1507 1499 1501 1488 1486 1485 1477 1477 1478 1481 1485 1490 1496 1503 1508 1513 1518 1520 1522 1527 1530 1534 1537 1540 1543 1546 1550 1553 1556 1559 1561 1567 1569 1571 1574 1576 1579 1583 1583 1584 1586 1588 1590 1592
1509 1506 1511 1513 1507 1509 1495 1502 1485 1482 1481 1480 1478 1479 1481 1483 1487 1492 1497 1502 1507 1511 1513 1517 1521 1525 1528 1532 1536 1539 1543 1546 1549 1552 1555 1557 1561 1565 1569 1570 1573 1576 1578 1581 1583 1584 1587 1588 1591
1501 1498 1508 1530 1515 1503 1494 1505 1485 1480 1481 1482 1478 1480 1481 1482 1484 1487 1491 1496 1500 1505 1508 1513 1515 1520 1524 1527 1531 1535 1538 1542 1545 1548 1552 1555 1558 1561 1564 1566 1569 1572 1575 1577 1580 1583 1584 1586 1587
1501 1505 1490 1499 1492 1508 1489 1483 1474 1477 1476 1477 1479 1479 1481 1483 1484 1486 1489 1491 1496 1500 1503 1506 1511 1515 1519 1522 1526 1529 1534 1537 1541 1545 1547 1551 1554 1557 1559 1562 1565 1567 1571 1574 1577 1580 1582 1582 1584
1498 1495 1502 1493 1521 1521 1492 1496 1489 1478 1477 1477 1478 1481 1482 1483 1483 1484 1486 1488 1490 1494 1499 1502 1507 1509 1513 1517 1521 1525 1529 1532 1537 1540 1543 1547 1550 1553 1556 1557 1560 1563 1567 1570 1572 1576 1577 1578 1579
1496 1498 1496 1492 1493 1507 1507 1489 1466 1474 1477 1481 1481 1483 1483 1483 1481 1481 1483 1486 1490 1493 1495 1497 1499 1503 1508 1512 1517 1521 1524 1528 1532 1535 1538 1541 1546 1548 1551 1553 1556 1559 1562 1565 1567 1570 1573 1574 1575
1495 1494 1490 1497 1500 1490 1495 1493 1469 1473 1479 1484 1485 1486 1486 1485 1481 1480 1481 1484 1487 1490 1492 1494 1498 1499 1502 1508 1512 1516 1520 1524 1528 1531 1533 1536 1539 1543 1545 1548 1552 1554 1558 1560 1562 1564 1567 1568 1571